Tracking 25710 objects as of 6-Jul-2022
HD Live streaming from Space Station
objects crossing your sky now

STARLINK-3987

Track STARLINK-3987 now!
10-day predictions
STARLINK-3987 is classified as:


NORAD ID: 52699
Int'l Code: 2022-053AV
Perigee: 355.5 km
Apogee: 358.5 km
Inclination: 53.2 °
Period: 91.5 minutes
Semi major axis: 6728 km
RCS: Unknown
Launch date: May 18, 2022
Source: United States (US)
Launch site: AIR FORCE EASTERN TEST RANGE (AFETR)
aabbcc
Your satellite tracking list
Your tracking list is empty




NASA's NSSDC Master Catalog

Two Line Element Set (TLE):
1 52699U 22053AV  22187.25001157  .00101292  00000-0  71893-3 0  9990
2 52699  53.2158  56.2200 0002246  26.6345 333.1195 15.73150569  8007
Source of the keplerian elements: AFSPC